Location: *
(50.3194°N, 7.1067°E)
Time: 18:45:14
(UTC+00:00)

KORONAS-FOTON - Pass Details

Date: 22 September 2019
Orbit: 505 x 533 km, 82.4° (Epoch: 20 October)

Event Time Altitude Azimuth Distance (km) Brightness Sun altitude
Rises 19:15:33 0° 351° (N) 2,627 7.8 -17.2°
Reaches altitude 10° 19:17:42 10° 353° (N) 1,734 6.8 -17.5°
Maximum altitude 19:21:30 73° 79° (ENE) 536 3.6 -18.0°
Enters shadow 19:22:44 40° 153° (SSE) 761 4.2 -18.2°
